Skip Page Navigation
NASA JPL Caltech
NASA Logo - Jet Propulsion Laboratory + View the NASA Portal
+ Near-Earth Object (NEO) Program
Search JPL
JPL Home Earth Solar System Stars & Galaxies Technology
JPL Solar System Dynamics
BODIES ORBITS EPHEMERIDES TOOLS PHYSICAL DATA DISCOVERY FAQ SITE MAP
JPL Small-Body Database Browser
Search: [ help ]  
2868 Upupa (1972 UA)
Classification: Main-belt Asteroid          SPK-ID: 2002868
Ephemeris | Orbit Diagram | Orbital Elements | Physical Parameters | Discovery Circumstances ]

[ hide orbit diagram ]
Orbit Diagram
Note: Make sure you have Java enabled on your browser to see the applet. This applet is provided as a 3D orbit visualization tool. The applet was implemented using 2-body methods, and hence should not be used for determining accurate long-term trajectories (over several years or decades) or planetary encounter circumstances. For accurate long-term ephemerides, please instead use our Horizons system.
Orbit Viewer

Additional Notes: the orbits shown in the applet are color coded. The planets are white lines, and the asteroid/comet is a blue line. The bright white line indicates the portion of the orbit that is above the ecliptic plane, and the darker portion is below the ecliptic plane. Likewise for the asteroid/comet orbit, the light blue indicates the portion above the ecliptic plane, and the dark blue the portion below the ecliptic plane.

Orbit Viewer applet originally written and kindly provided by Osamu Ajiki (AstroArts), and further modified by Ron Baalke (JPL).


Orbital Elements at Epoch 2456400.5 (2013-Apr-18.0) TDB
Reference: JPL 1 (heliocentric ecliptic J2000)
 Element Value Uncertainty (1-sigma)   Units 
e .1743234934989854 7.7145e-08  
a 2.816395154451009 1.7152e-08 AU
q 2.325431312053495 2.1272e-07 AU
i 7.549372133327134 7.1043e-06 deg
node 138.1990109241397 5.3177e-05 deg
peri 261.0233256884032 5.7182e-05 deg
M 203.368339069474 2.061e-05 deg
tp 2457151.631304154432
(2015-May-09.13130415)
0.00010152 JED
period 1726.389593835276
4.73
1.5771e-05
4.318e-08
d
yr
n .2085276702810973 1.9049e-09 deg/d
Q 3.307358996848524 2.0142e-08 AU
  Orbit Determination Parameters
   # obs. used (total)      1027  
   data-arc span      14784 days (40.48 yr)  
   first obs. used      1972-10-30  
   last obs. used      2013-04-22  
   planetary ephem.      DE405  
   SB-pert. ephem.      SB405-CPV-2  
   condition code      0  
   fit RMS      .58965  
   data source      ORB  
   producer      Otto Matic  
   solution date      2013-Apr-29 12:54:33  

Additional Information
 Earth MOID = 1.34679 AU 
 T_jup = 3.284 
[ show covariance matrix ]

Ephemeris | Orbit Diagram | Orbital Elements | Physical Parameters | Discovery Circumstances ]

Physical Parameter Table
Parameter Symbol Value Units Sigma Reference Notes
absolute magnitude H 13.1 mag n/a PDS3 (MPC 17267)  

2868 Upupa (1972 UA)          Discovered 1972-Oct-30 by Wild, P. at Zimmerwald
Reference: DISCOVERY.DBLast Updated: 2003-08-29

Alternate Designations
 1972 UA = 1981 QT2 
Ephemeris | Orbit Diagram | Orbital Elements | Physical Parameters | Discovery Circumstances ]
ABOUT SSD CREDITS/AWARDS PRIVACY/COPYRIGHT GLOSSARY LINKS
FirstGov 2013-May-19 22:15 UT
(server date/time)  
NASA Home Page
Site Manager:   Donald K. Yeomans
Webmaster  Alan B. Chamberlin